Location: ?????????
(38.2352°N, 24.0168°E)
Time: 11:14:12
(UTC+00:00)

Daily predictions for brighter satellites

Satellite Brightness Start Highest point End
(mag) Time Altitude Azimuth Time Altitude Azimuth Time Altitude Azimuth
Cosmos 1980 Rocket 3.3 17:58:59 10° N 18:03:51 29° ENE 18:08:42 10° ESE
Cosmos 2369 4.4 17:58:50 10° N 18:04:08 40° ENE 18:09:24 10° SE
ISS -1.1 18:04:03 10° N 18:05:38 13° NNE 18:07:13 10° NE
Cosmos 2058 3.0 18:02:22 10° S 18:06:27 56° E 18:10:34 10° NNE
Meteor 2-13 Rocket 4.5 18:02:23 10° S 18:08:24 64° E 18:14:24 10° NNE
COSMOS 2406 3.6 18:03:09 10° SSW 18:08:48 71° WNW 18:14:31 10° NNE
RESURS DK-1 2.3 18:07:53 10° SSW 18:11:59 65° ESE 18:16:06 10° NNE
OAO 3 Copernicus 4.5 18:08:08 10° W 18:13:06 61° S 18:18:03 10° ESE
Cosmos 1634 Rocket 4.2 18:08:04 10° N 18:14:21 82° W 18:20:33 10° S
Cosmos 2221 3.1 18:10:46 10° N 18:14:50 39° E 18:18:53 10° SSE
IRIS 3.7 18:12:28 10° WNW 18:14:51 81° NNE 18:17:53 10° ESE
Hubble Space Telescope 2.4 18:12:29 10° SW 18:15:30 20° S 18:18:32 10° SE
CZ-4 R/B 4.3 18:15:33 10° SW 18:18:13 16° W 18:20:54 10° NW
ERBS 2.6 18:15:25 10° NNW 18:18:34 50° NE 18:21:24 12° ESE
USA 32 4.2 18:14:10 10° N 18:19:26 81° W 18:24:39 10° S
SL-19 R/B 4.1 18:20:33 10° SSE 18:23:57 89° WSW 18:27:56 10° NNW
Resurs 01 Rocket 2.6 18:20:49 11° SE 18:24:34 30° ENE 18:28:27 10° N
Cosmos 2098 Rocket 3.3 18:22:04 10° SSE 18:24:37 26° E 18:27:28 10° NNE
Cosmos 2151 4.2 18:23:53 11° SE 18:27:00 22° E 18:30:18 10° NE
Cosmos 1689 Rocket 3.8 18:24:36 10° N 18:27:08 33° WNW 18:29:39 10° SW
ERS-2 2.1 18:30:02 10° NNE 18:33:37 56° E 18:37:11 10° S
SEDSat Delta rocket 3.8 18:30:27 10° WSW 18:34:04 31° S 18:36:36 16° SE
Ariane Rocket 3.0 18:31:13 10° SSE 18:36:14 67° ENE 18:41:16 10° N
USA 186 3.9 18:36:37 10° SSW 18:39:14 25° W 18:41:45 10° NW
SL-16 R/B 4.0 18:39:02 10° N 18:42:48 18° NE 18:46:11 11° E
GENESIS II 4.5 18:38:57 10° NW 18:42:48 64° WSW 18:45:57 15° SSE
Cosmos 2360 4.4 18:41:10 10° NNW 18:46:50 73° WSW 18:52:20 11° SSE
ARIANE 5 R/B 4.5 18:49:18 14° E 18:50:57 16° ENE 18:53:43 10° NNE
Cosmos 371 Rocket 3.7 18:46:43 10° N 18:51:21 45° ENE 18:54:11 21° SE
SPOT 1/Viking Rocket 4.2 18:50:41 19° SE 18:53:50 38° ENE 18:58:37 10° N
ATLAS 2AS CENTAUR R/B 4.2 18:46:37 10° WSW 18:54:07 45° NW 19:01:32 10° NNE
Atlas Centaur 2 2.4 18:51:37 10° WSW 18:55:19 27° S 18:56:28 23° SSE
Helios 1A Rocket 4.5 18:53:35 10° SSW 18:57:14 33° W 19:00:55 10° NNW
Cosmos 1076 Rocket 3.6 18:54:45 10° S 18:59:04 83° W 19:03:27 10° N
Cosmos 1697 Rocket 3.5 18:54:12 10° NNW 18:59:39 49° WSW 19:05:03 10° S
Cosmos 1271 Rocket 4.1 18:57:43 10° NNE 19:00:58 23° ENE 19:01:48 22° E
BREEZE M DEB (TANK) 2.7 19:01:16 10° SW 19:03:47 55° SE 19:13:46 10° ENE
ATLAS 3B R/B 3.0 18:57:27 10° NNW 19:04:35 66° NE 19:09:26 23° SE
Cosmos 923 Rocket 4.4 19:00:33 15° SSE 19:04:38 42° ESE 19:09:39 10° NNE
OBJECT-B 3.7 19:04:08 10° SW 19:05:55 14° W 19:07:43 10° WNW
Cosmos 1092 Rocket 4.1 19:03:40 14° SSE 19:08:57 57° E 19:15:07 10° NNE
Meteor 2-19 Rocket 4.4 19:03:40 10° S 19:09:39 68° E 19:15:40 10° NNE
Terra 3.6 19:09:03 15° E 19:10:15 16° ENE 19:13:05 10° NNE
USA 267 4.1 19:05:18 10° ENE 19:10:32 25° ESE 19:11:57 23° SE
Cosmos 2082 Rocket 3.6 19:06:11 10° SW 19:11:27 40° WNW 19:16:45 10° N
SPOT 5 4.1 19:11:34 20° E 19:12:28 21° ENE 19:15:43 10° NNE
Cosmos 2278 3.7 19:13:45 10° NNW 19:19:26 84° WSW 19:22:42 27° SSE
Cosmos 1633 4.3 19:18:02 10° SW 19:21:18 32° WNW 19:24:36 10° NNW
ERS-1 Rocket 4.0 19:20:35 26° E 19:22:01 30° ENE 19:26:22 10° N
Cosmos 2026 Rocket 4.1 19:17:48 21° SSE 19:22:01 59° E 19:28:11 10° NNE
Cosmos 158 Rocket 4.2 19:19:58 10° SSW 19:25:03 72° WNW 19:30:19 10° NNE
Cosmos 2360 Rocket 4.0 19:22:34 10° N 19:26:17 18° NE 19:28:22 15° E
Cosmos 332 Rocket 3.9 19:23:50 10° NNW 19:28:42 63° ENE 19:30:16 40° SE
Landsat 7 4.4 19:32:01 21° SSW 19:34:58 52° W 19:39:37 10° NNW
Spot 2 Rocket 3.6 19:34:36 40° SE 19:36:17 62° ENE 19:41:20 10° N
SPOT 3 Rocket 3.9 19:33:28 24° S 19:36:34 62° WSW 19:41:45 10° NNW
Cosmos 1627 Rocket 4.4 19:33:00 21° S 19:37:30 82° E 19:43:49 10° N
GP-B 3.0 19:33:28 10° N 19:37:53 66° E 19:38:47 52° SSE
Cosmos 2112 Rocket 4.1 19:37:34 39° SSE 19:39:14 56° ESE 19:44:24 10° NNE
Meteor 1-26 Rocket 4.3 19:33:25 10° N 19:39:21 71° E 19:41:32 39° SSE
Cosmos 1680 Rocket 3.4 19:37:14 31° S 19:39:44 68° ESE 19:44:58 10° NNE
MetOp-B 4.4 19:40:08 28° S 19:42:58 65° WSW 19:48:19 10° NNW
ISS -3.2 19:39:46 10° NW 19:42:58 51° NNE 19:42:58 51° NNE
Cosmos 1980 Rocket 3.3 19:42:44 10° NW 19:47:53 37° WSW 19:51:04 20° SSW
Okean 3 Rocket 3.5 19:47:37 60° ESE 19:47:56 62° E 19:52:24 10° NNE
Cosmos 1812 4.1 19:45:24 10° NNE 19:48:00 27° NE 19:48:00 27° NE
CZ-2C R/B 4.3 19:44:34 10° N 19:48:59 54° WNW 19:52:03 18° SW
USA 245 4.0 19:47:54 39° S 19:49:51 74° WSW 19:54:22 10° NNW
Cosmos 1428 Rocket 4.5 19:47:21 22° SSW 19:51:28 80° W 19:57:36 10° N
Cosmos 2322 Rocket 2.5 19:53:26 10° NNW 19:58:56 52° ENE 19:59:58 46° E
Resurs 01 Rocket 3.7 19:58:23 14° SW 20:01:02 22° W 20:04:32 10° NW
Meteor 2-14 Rocket 4.4 19:59:57 48° SSE 20:01:34 66° E 20:07:40 10° NNE
Cosmos 1408 Rocket 4.4 20:03:08 37° ENE 20:03:08 37° ENE 20:06:16 10° NNE
Cosmos 304 Rocket 4.0 19:58:21 10° NNW 20:03:05 62° WSW 20:03:55 52° SSW
Cosmos 1933 4.3 20:00:01 10° NNW 20:03:50 41° W 20:04:32 37° WSW
BREEZE-M DEB (TANK) 4.4 19:59:35 10° NW 20:03:51 84° NE 20:09:24 32° ESE
Cosmos 2266 Rocket 4.5 20:08:56 40° E 20:09:06 40° E 20:14:49 10° NNE
Cosmos 1553 Rocket 3.9 20:03:46 10° N 20:09:50 68° E 20:10:57 56° SE
CARTOSAT-1 3.9 20:09:30 52° SW 20:09:55 55° W 20:14:10 10° NNW
Cosmos 2084 3.6 20:12:29 65° WNW 20:12:31 65° NW 20:16:38 10° NNE
Gbstr 26 Del rocket 3.5 20:09:30 10° NW 20:12:56 47° NNE 20:12:56 47° NNE
Cosmos 2219 Rocket 3.9 20:16:25 10° N 20:20:18 19° NE 20:21:16 18° ENE
Cosmos 1862 4.1 20:21:26 48° N 20:21:26 48° N 20:24:23 10° N
Cosmos 1624 Rocket 4.1 20:17:30 10° N 20:22:38 59° ENE 20:22:38 59° ENE
COSMOS 2455 3.6 20:26:05 37° ENE 20:26:05 37° ENE 20:30:16 10° NE
ARIANE 5 R/B 3.4 20:26:51 44° WSW 20:27:01 45° W 20:31:18 10° NNW
SL-16 R/B 2.2 20:21:47 10° NNW 20:27:26 68° WSW 20:28:03 63° SSW
Cosmos 1655 Rocket 3.9 20:27:49 63° SE 20:28:28 68° E 20:34:49 10° NNE
Cosmos 1782 4.1 20:26:35 10° NNW 20:30:03 34° W 20:30:03 34° W
Cosmos 1515 Rocket 4.3 20:26:13 10° N 20:29:35 47° NNE 20:29:35 47° NNE
Cosmos 2237 4.1 20:25:46 10° NNW 20:31:30 74° ENE 20:31:46 73° E
H-2A R/B 4.4 20:27:53 10° NNE 20:30:48 44° NNE 20:30:48 44° NNE
COSMOS 2428 4.4 20:30:37 10° N 20:34:47 20° NE 20:35:35 20° ENE
Meteor 2-6 Rocket 4.0 20:31:10 10° N 20:36:35 84° W 20:36:39 83° WSW
Cosmos 1417 Rocket 4.3 20:30:47 10° N 20:37:06 88° W 20:37:54 70° S
S3M 3.9 20:33:43 10° N 20:40:09 79° E 20:40:43 72° SE
BREEZE-M DEB (TANK) 3.5 20:37:27 10° WNW 20:41:41 72° SW 20:43:14 57° SSE
Cosmos 1151 Rocket 4.3 20:39:55 10° NNW 20:43:40 34° W 20:43:40 34° W
ATLAS 5 CENTAUR R/B 4.3 20:42:58 10° N 20:46:48 18° NE 20:49:10 15° ENE
Terra 2.4 20:47:56 50° W 20:47:56 50° W 20:52:12 10° NNW
SPOT 5 4.1 20:50:48 30° W 20:50:48 30° W 20:54:13 10° NW
USA 267 3.2 20:47:21 10° NE 20:53:55 80° NW 20:59:01 18° SW
ATLAS 3B R/B 4.2 20:49:10 10° WNW 20:54:47 25° WSW 20:56:42 22° SW
ERS-1 Rocket 4.4 21:00:35 28° W 21:00:43 28° W 21:05:03 10° NW
Meteor 1-27 Rocket 3.9 20:56:43 10° N 21:01:49 68° NE 21:01:49 68° NE
Cosmos 2056 Rocket 4.0 20:57:31 10° NNW 21:02:09 55° WNW 21:02:09 55° WNW
Cosmos 2360 Rocket 2.5 21:05:12 10° NNW 21:10:08 61° WNW 21:10:08 61° WNW
Cosmos 2333 Rocket 2.6 21:15:50 10° NNW 21:20:38 60° NNE 21:20:38 60° NNE
USA 234 4.2 21:22:43 29° ENE 21:25:13 40° NNE 21:31:15 10° NW
Cosmos 2322 4.1 21:26:04 10° NNW 21:30:48 61° N 21:30:48 61° N
Cosmos 2297 Rocket 4.1 21:35:25 20° ENE 21:35:25 20° ENE 21:37:32 10° NE
Lacrosse 5 4.3 21:42:49 13° ENE 21:42:49 13° ENE 21:43:25 10° NE
Cosmos 2237 Rocket 3.8 21:37:29 10° N 21:42:07 25° ENE 21:42:14 25° ENE
Cosmos 2322 Rocket 4.1 21:38:37 10° NW 21:41:46 19° W 21:41:46 19° W
Cosmos 2227 Rocket 4.1 21:47:05 19° ENE 21:47:05 19° ENE 21:49:06 10° NE
Cosmos 2285 Rocket 4.1 21:42:13 10° NNW 21:47:42 68° NW 21:47:42 68° NW
Cosmos 2219 Rocket 3.1 21:59:11 10° NNW 22:02:58 42° NW 22:02:58 42° NW
BREEZE-M DEB (TANK) 4.5 21:54:59 10° WSW 22:07:38 61° NNW 22:11:44 10° NE
SL-16 R/B 4.5 22:05:53 10° NNE 22:09:03 15° NE 22:10:53 13° ENE
COSMOS 2455 4.3 22:09:10 27° WNW 22:10:39 30° NW 22:15:56 10° N
NOSS 3-1 (C) 4.3 22:06:59 10° NW 22:14:30 60° WSW 22:14:30 60° WSW
Meteor 2-4 Rocket 4.4 22:11:31 10° N 22:16:13 53° NNE 22:16:13 53° NNE
COSMOS 2428 3.7 22:13:51 10° NNW 22:17:35 39° NW 22:17:35 39° NW
Cosmos 1745 Rocket 4.3 22:23:42 64° NNE 22:23:42 64° NNE 22:28:55 10° N
USA 229 DEB 3.9 22:21:25 10° NW 22:28:16 71° W 22:28:16 71° W
USA 229 3.9 22:21:31 10° NW 22:28:23 72° W 22:28:23 72° W
ATLAS 5 CENTAUR R/B 2.9 22:26:11 10° NNW 22:30:40 57° NNW 22:30:40 57° NNW
Cosmos 2219 3.9 22:40:38 50° NNE 22:40:38 50° NNE 22:44:48 10° NNE
Nadezhda 1 Rocket 4.3 22:39:04 10° N 22:44:26 61° NW 22:44:26 61° NW
NOSS 3-1 (A) 4.3 22:41:41 10° NW 22:48:48 58° W 22:48:48 58° W
USA 234 3.9 23:10:02 43° WNW 23:10:02 43° WNW 23:14:30 10° NW
SL-16 R/B 4.2 23:06:18 22° E 23:08:26 26° ENE 23:13:24 10° N
CZ-2D R/B 3.7 23:05:24 10° NE 23:09:04 26° E 23:09:04 26° E
Cosmos 2297 Rocket 3.3 23:17:11 36° NW 23:17:11 36° NW 23:21:52 10° N
Lacrosse 5 3.3 23:21:59 32° NNW 23:21:59 32° NNW 23:26:13 10° NNE
Cosmos 2237 Rocket 3.6 23:20:58 10° NW 23:24:02 30° NW 23:24:02 30° NW
Cosmos 2227 Rocket 3.2 23:28:53 39° NW 23:28:53 39° NW 23:33:35 10° N
Cosmos 2181 Rocket 4.0 23:25:07 10° N 23:30:50 74° NNW 23:30:50 74° NNW
Cosmos 2263 Rocket 2.8 23:46:35 47° E 23:46:35 47° E 23:51:28 10° NNE
ADEOS Rocket 3.9 23:47:08 33° E 23:48:26 38° ENE 23:53:28 10° N
SL-16 R/B 2.5 23:48:12 10° NNW 23:52:42 58° NW 23:52:42 58° NW
Cosmos 407 Rocket 4.0 23:54:56 55° ENE 23:54:56 55° ENE 23:59:22 10° NNE
